Regional Weather Roundup
Issued by NWS

Home | Current Version | Previous Version | Text Only | Print | Product List | Glossary Off
Versions: 1 2 3 4 5 6 7 8 9 10 11 12 13 14 15 16 17 18 19 20 21 22 23 24 25 26 27 28 29 30 31 32 33 34 35 36 37 38 39 40 41 42 43 44 45 46 47 48 49 50

000
ASUS45 KCYS 231310
RWRWY

WYOMING REGIONAL WEATHER ROUNDUP
NATIONAL WEATHER SERVICE CHEYENNE WY
700 AM MDT MON MAY 23 2016

NOTE:  "FAIR" INDICATES FEW OR NO CLOUDS BELOW 12,000 FEET
WITH NO SIGNIFICANT WEATHER AND/OR OBSTRUCTIONS TO VISIBILITY.

WYZ001-231400-
YELLOWSTONE NATIONAL PARK

CITY           SKY/WX    TMP DP  RH WIND       PRES   REMARKS
LK YELLOWSTONE   N/A     32  25  75 CALM      29.95R
W YELLOWSTONE  NOT AVBL

$$
WYZ002>013-054>058-071-098>099-231400-
NORTHERN WYOMING

CITY           SKY/WX    TMP DP  RH WIND       PRES   REMARKS
JACKSON        MOSUNNY   34  30  86 CALM      29.96S
CODY           FAIR      48  25  40 W12G17    29.82R
GREYBULL       FAIR      44  29  55 SE3       29.81S
WORLAND        FAIR      41  31  67 CALM      29.82R
SHERIDAN       FAIR      52  32  46 S7        29.77S
BUFFALO        FAIR      48  29  47 W7        29.79S
GILLETTE       FAIR      48  29  47 SW15      29.80R
HULETT         FAIR      46  32  57 SW6       29.82R
NEWCASTLE      FAIR      43  34  70 SE5       29.86R

$$
WYZ014>020-022>026-101>103-231400-
CENTRAL WYOMING

CITY           SKY/WX    TMP DP  RH WIND       PRES   REMARKS
BIG PINEY      FAIR      28  25  88 CALM      29.99R
PINEDALE       FAIR      30  28  93 CALM      30.00R
DUBOIS         FAIR      32  23  69 NW16G23   29.92R WCI  21
LANDER         FAIR      36  25  64 N9        29.88R WCI  29
RIVERTON       FAIR      40  24  53 S9        29.90R WCI  34
CASPER         FAIR      43  29  57 SW20      29.90R
DOUGLAS        FAIR      43  29  57 CALM      29.91R

$$
WYZ021-027>030-104>119-231400-
SOUTHERN WYOMING

CITY           SKY/WX    TMP DP  RH WIND       PRES   REMARKS
EVANSTON       FAIR      35  26  69 CALM      29.99R
KEMMERER         N/A     32  28  86 CALM      30.00
FORT BRIDGER   PTSUNNY   36  32  87 W3        30.02R
ROCK SPRINGS   FAIR      34  31  88 SW5       30.00R WCI  30
DIXON          FAIR      33  29  88 E3        30.04F
RAWLINS        FAIR      36  30  79 CALM      30.00R
SARATOGA       FAIR      32  28  86 MISG      30.03R
LARAMIE        FAIR      39  26  59 NW5       29.99R
CHEYENNE       FAIR      45  29  53 NW7       29.96S
TORRINGTON     NOT AVBL
PINE BLUFFS    FAIR      43  32  65 S8        29.95R

$$



USA.gov is the U.S. government's official web portal to all federal, state and local government web resources and services.